| time (UTC) | temp C | wind direction | speed KPH | gust KPH | rain 1hr cm | rain 24hr cm | rain mn cm | humidity % | barometer mb |
| 20260503072120 | 12 | 171 | 0.0 | 1.6 | 0.00 | 0.00 | 0.00 | 87 | 1012.5 |
| 20260503071618 | 12 | 171 | 0.0 | 3.2 | 0.00 | 0.00 | 0.00 | 87 | 1012.5 |
| 20260503071118 | 12 | 171 | 0.0 | 3.2 | 0.00 | 0.00 | 0.00 | 87 | 1012.5 |
| 20260503070619 | 12 | 171 | 0.0 | 3.2 | 0.00 | 0.00 | 0.00 | 88 | 1012.5 |
| 20260503070117 | 12 | 171 | 0.0 | 4.8 | 0.00 | 0.00 | 0.00 | 88 | 1012.5 |
| 20260503060114 | 13 | 204 | 0.0 | 3.2 | 0.00 | 0.00 | 0.00 | 86 | 1012.3 |
| 20260503054613 | 13 | 204 | 0.0 | 3.2 | 0.00 | 0.00 | 0.00 | 84 | 1012.3 |
| 20260503054116 | 14 | 204 | 0.0 | 3.2 | 0.00 | 0.00 | 0.00 | 83 | 1012.4 |
| 20260503054111 | 14 | 204 | 0.0 | 0.0 | 0.00 | 0.00 | 0.00 | 83 | 1012.3 |
| 20260503053110 | 14 | 204 | 0.0 | 3.2 | 0.00 | 0.00 | 0.00 | 82 | 1012.4 |
| 20260503052613 | 15 | 204 | 0.0 | 3.2 | 0.00 | 0.00 | 0.00 | 82 | 1012.2 |
| 20260503052609 | 15 | 204 | 0.0 | 3.2 | 0.00 | 0.00 | 0.00 | 82 | 1012.3 |
| 20260503052220 | 15 | 204 | 0.0 | 3.2 | 0.00 | 0.00 | 0.00 | 83 | 1012.4 |
| 20260503051107 | 15 | 204 | 0.0 | 3.2 | 0.00 | 0.00 | 0.00 | 82 | 1012.3 |
| 20260503050607 | 15 | 203 | 0.0 | 3.2 | 0.00 | 0.00 | 0.00 | 82 | 1012.4 |
| 20260503050105 | 15 | 203 | 0.0 | 3.2 | 0.00 | 0.00 | 0.00 | 82 | 1012.4 |
| 20260503045605 | 15 | 202 | 0.0 | 0.0 | 0.00 | 0.00 | 0.00 | 81 | 1012.3 |
| 20260503045109 | 15 | 202 | 0.0 | 3.2 | 0.00 | 0.00 | 0.00 | 82 | 1012.3 |
| 20260503045104 | 15 | 202 | 0.0 | 3.2 | 0.00 | 0.00 | 0.00 | 81 | 1012.3 |
| 20260503044104 | 15 | 214 | 0.0 | 0.0 | 0.00 | 0.00 | 0.00 | 82 | 1012.3 |
| 20260503043602 | 15 | 237 | 0.0 | 0.0 | 0.00 | 0.00 | 0.00 | 82 | 1012.3 |
| 20260503043106 | 16 | 237 | 0.0 | 0.0 | 0.00 | 0.00 | 0.00 | 82 | 1012.3 |
| 20260503043101 | 16 | 237 | 0.0 | 0.0 | 0.00 | 0.00 | 0.00 | 82 | 1012.4 |
| 20260503042059 | 16 | 238 | 0.0 | 0.0 | 0.00 | 0.00 | 0.00 | 81 | 1012.3 |
| 20260503041558 | 16 | 238 | 0.0 | 0.0 | 0.00 | 0.00 | 0.00 | 81 | 1012.1 |
| 20260503041105 | 16 | 285 | 0.0 | 0.0 | 0.00 | 0.00 | 0.00 | 78 | 1012.0 |
| 20260503041059 | 16 | 238 | 0.0 | 0.0 | 0.00 | 0.00 | 0.00 | 80 | 1012.2 |
| 20260503040557 | 16 | 238 | 0.0 | 0.0 | 0.00 | 0.00 | 0.00 | 80 | 1012.1 |
| 20260503040057 | 16 | 264 | 0.0 | 0.0 | 0.00 | 0.00 | 0.00 | 79 | 1012.1 |
| 20260503035056 | 16 | 285 | 0.0 | 0.0 | 0.00 | 0.00 | 0.00 | 78 | 1011.9 |
| 20260503034558 | 16 | 286 | 0.0 | 0.0 | 0.00 | 0.00 | 0.00 | 78 | 1011.8 |
| 20260503034101 | 16 | 290 | 0.0 | 1.6 | 0.00 | 0.00 | 0.00 | 78 | 1011.7 |
| 20260503034057 | 16 | 288 | 0.0 | 0.0 | 0.00 | 0.00 | 0.00 | 78 | 1011.7 |
| 20260503033057 | 16 | 290 | 1.6 | 4.8 | 0.00 | 0.00 | 0.00 | 78 | 1011.7 |
| 20260503032556 | 17 | 297 | 1.6 | 4.8 | 0.00 | 0.00 | 0.00 | 77 | 1011.6 |
| 20260503032056 | 16 | 279 | 0.0 | 3.2 | 0.00 | 0.00 | 0.00 | 77 | 1011.6 |
| 20260503031556 | 16 | 278 | 0.0 | 3.2 | 0.00 | 0.00 | 0.00 | 78 | 1011.5 |
| 20260503031057 | 16 | 313 | 1.6 | 4.8 | 0.00 | 0.00 | 0.00 | 78 | 1011.5 |
| 20260503030558 | 16 | 336 | 3.2 | 4.8 | 0.00 | 0.00 | 0.00 | 78 | 1011.4 |
| 20260503030056 | 17 | 302 | 3.2 | 4.8 | 0.00 | 0.00 | 0.00 | 77 | 1011.5 |
| 20260503025556 | 17 | 288 | 1.6 | 4.8 | 0.00 | 0.00 | 0.00 | 77 | 1011.7 |
| 20260503025056 | 17 | 173 | 0.0 | 3.2 | 0.00 | 0.00 | 0.00 | 76 | 1011.9 |
| 20260503024556 | 17 | 169 | 0.0 | 0.0 | 0.00 | 0.00 | 0.00 | 75 | 1011.8 |
| 20260503024057 | 17 | 169 | 0.0 | 4.8 | 0.00 | 0.00 | 0.00 | 73 | 1011.9 |
| 20260503023558 | 18 | 169 | 0.0 | 4.8 | 0.00 | 0.00 | 0.00 | 72 | 1012.0 |
| 20260503023056 | 18 | 169 | 1.6 | 8.0 | 0.00 | 0.00 | 0.00 | 72 | 1012.0 |
| 20260503022557 | 18 | 167 | 3.2 | 12.9 | 0.00 | 0.00 | 0.00 | 72 | 1012.0 |
| 20260503022058 | 18 | 197 | 3.2 | 12.9 | 0.00 | 0.00 | 0.00 | 72 | 1012.3 |
| 20260503021556 | 18 | 200 | 3.2 | 12.9 | 0.00 | 0.00 | 0.00 | 71 | 1012.3 |
| 20260503021055 | 18 | 167 | 3.2 | 12.9 | 0.00 | 0.00 | 0.00 | 70 | 1012.3 |
| 20260503020555 | 18 | 148 | 3.2 | 11.3 | 0.00 | 0.00 | 0.00 | 70 | 1012.4 |
| 20260503020055 | 18 | 172 | 3.2 | 6.4 | 0.00 | 0.00 | 0.00 | 70 | 1012.2 |
| 20260503015554 | 19 | 134 | 3.2 | 8.0 | 0.00 | 0.00 | 0.00 | 70 | 1012.1 |
| 20260503015054 | 19 | 167 | 1.6 | 8.0 | 0.00 | 0.00 | 0.00 | 71 | 1012.0 |
| 20260503014552 | 19 | 153 | 1.6 | 6.4 | 0.00 | 0.00 | 0.00 | 69 | 1011.8 |
| 20260503014053 | 19 | 187 | 1.6 | 6.4 | 0.00 | 0.00 | 0.00 | 69 | 1011.6 |
| 20260503013557 | 20 | 181 | 1.6 | 6.4 | 0.00 | 0.00 | 0.00 | 68 | 1011.5 |
| 20260503013553 | 20 | 171 | 1.6 | 6.4 | 0.00 | 0.00 | 0.00 | 69 | 1011.6 |
| 20260503012552 | 20 | 202 | 1.6 | 6.4 | 0.00 | 0.00 | 0.00 | 66 | 1011.5 |
| 20260503012051 | 20 | 151 | 1.6 | 6.4 | 0.00 | 0.00 | 0.00 | 65 | 1011.5 |
| 20260503011550 | 20 | 170 | 1.6 | 6.4 | 0.00 | 0.00 | 0.00 | 63 | 1011.5 |
| 20260503011050 | 20 | 213 | 1.6 | 4.8 | 0.00 | 0.00 | 0.00 | 63 | 1011.5 |
| 20260503010556 | 21 | 175 | 1.6 | 6.4 | 0.00 | 0.00 | 0.00 | 63 | 1011.5 |
| 20260503010552 | 21 | 192 | 1.6 | 4.8 | 0.00 | 0.00 | 0.00 | 63 | 1011.5 |
| 20260503005551 | 21 | 119 | 1.6 | 6.4 | 0.00 | 0.00 | 0.00 | 62 | 1011.5 |
| 20260503005052 | 21 | 147 | 1.6 | 6.4 | 0.00 | 0.00 | 0.00 | 61 | 1011.5 |
| 20260503004550 | 21 | 13 | 1.6 | 6.4 | 0.00 | 0.00 | 0.00 | 62 | 1011.4 |
| 20260503004055 | 21 | 317 | 1.6 | 3.2 | 0.00 | 0.00 | 0.00 | 59 | 1011.2 |
| 20260503004051 | 22 | 150 | 1.6 | 6.4 | 0.00 | 0.00 | 0.00 | 60 | 1011.4 |
| 20260503003550 | 22 | 287 | 1.6 | 3.2 | 0.00 | 0.00 | 0.00 | 59 | 1011.4 |
| 20260503003047 | 22 | 290 | 1.6 | 3.2 | 0.00 | 0.00 | 0.00 | 59 | 1011.3 |
| 20260503002546 | 21 | 314 | 1.6 | 4.8 | 0.00 | 0.00 | 0.00 | 60 | 1011.2 |
| 20260503001549 | 21 | 286 | 1.6 | 4.8 | 0.00 | 0.00 | 0.00 | 59 | 1011.2 |
| 20260503001544 | 21 | 245 | 1.6 | 4.8 | 0.00 | 0.00 | 0.00 | 65 | 1011.3 |
| 20260503000544 | 21 | 269 | 1.6 | 4.8 | 0.00 | 0.00 | 0.00 | 65 | 1011.3 |
| 20260503000050 | 21 | 306 | 1.6 | 6.4 | 0.00 | 0.00 | 0.00 | 61 | 1011.4 |
| 20260503000045 | 20 | 275 | 3.2 | 6.4 | 0.00 | 0.00 | 0.00 | 61 | 1011.4 |
| 20260502235545 | 20 | 275 | 3.2 | 6.4 | 0.00 | 0.00 | 0.00 | 60 | 1011.4 |
| 20260502235159 | 20 | 21 | 1.6 | 6.4 | 0.00 | 0.00 | 0.00 | 62 | 1011.5 |
| 20260502234044 | 20 | 304 | 1.6 | 4.8 | 0.00 | 0.00 | 0.00 | 59 | 1011.6 |
| 20260502233544 | 20 | 340 | 1.6 | 4.8 | 0.00 | 0.00 | 0.00 | 62 | 1011.7 |
| 20260502233050 | 20 | 323 | 1.6 | 6.4 | 0.00 | 0.00 | 0.00 | 63 | 1011.8 |
| 20260502233045 | 20 | 5 | 3.2 | 6.4 | 0.00 | 0.00 | 0.00 | 62 | 1011.7 |
| 20260502232044 | 20 | 327 | 1.6 | 3.2 | 0.00 | 0.00 | 0.00 | 64 | 1011.9 |
| 20260502231543 | 19 | 190 | 1.6 | 4.8 | 0.00 | 0.00 | 0.00 | 65 | 1012.0 |
| 20260502231042 | 20 | 190 | 1.6 | 4.8 | 0.00 | 0.00 | 0.00 | 61 | 1012.1 |
| 20260502230547 | 20 | 347 | 3.2 | 8.0 | 0.00 | 0.00 | 0.00 | 61 | 1012.2 |
| 20260502230543 | 20 | 265 | 1.6 | 4.8 | 0.00 | 0.00 | 0.00 | 62 | 1012.1 |
| 20260502225542 | 20 | 350 | 1.6 | 8.0 | 0.00 | 0.00 | 0.00 | 60 | 1012.2 |
| 20260502225042 | 20 | 168 | 1.6 | 6.4 | 0.00 | 0.00 | 0.00 | 62 | 1012.4 |
| 20260502224543 | 20 | 165 | 1.6 | 6.4 | 0.00 | 0.00 | 0.00 | 63 | 1012.5 |
| 20260502224042 | 20 | 228 | 1.6 | 4.8 | 0.00 | 0.00 | 0.00 | 62 | 1012.5 |
| 20260502223542 | 20 | 253 | 1.6 | 4.8 | 0.00 | 0.00 | 0.00 | 65 | 1012.6 |
| 20260502223042 | 20 | 58 | 1.6 | 4.8 | 0.00 | 0.00 | 0.00 | 61 | 1012.8 |
| 20260502222540 | 19 | 41 | 1.6 | 4.8 | 0.00 | 0.00 | 0.00 | 62 | 1012.8 |
| 20260502222040 | 19 | 355 | 3.2 | 8.0 | 0.00 | 0.00 | 0.00 | 61 | 1012.9 |
| 20260502221540 | 19 | 12 | 1.6 | 8.0 | 0.00 | 0.00 | 0.00 | 64 | 1012.9 |
| 20260502221040 | 19 | 286 | 1.6 | 4.8 | 0.00 | 0.00 | 0.00 | 66 | 1012.9 |
| 20260502220540 | 18 | 164 | 1.6 | 4.8 | 0.00 | 0.00 | 0.00 | 64 | 1013.1 |
| 20260502220039 | 18 | 172 | 1.6 | 4.8 | 0.00 | 0.00 | 0.00 | 66 | 1013.2 |
| 20260502215540 | 18 | 296 | 1.6 | 4.8 | 0.00 | 0.00 | 0.00 | 66 | 1013.2 |
| 20260502215041 | 18 | 174 | 1.6 | 4.8 | 0.00 | 0.00 | 0.00 | 67 | 1013.3 |
| 20260502214540 | 18 | 171 | 1.6 | 4.8 | 0.00 | 0.00 | 0.00 | 65 | 1013.3 |
| 20260502214040 | 17 | 263 | 3.2 | 4.8 | 0.00 | 0.00 | 0.00 | 65 | 1013.3 |
| 20260502213537 | 17 | 355 | 3.2 | 6.4 | 0.00 | 0.00 | 0.00 | 66 | 1013.3 |
| 20260502213039 | 17 | 222 | 1.6 | 8.0 | 0.00 | 0.00 | 0.00 | 70 | 1013.5 |
| 20260502212537 | 17 | 156 | 1.6 | 8.0 | 0.00 | 0.00 | 0.00 | 66 | 1013.5 |
| 20260502212036 | 17 | 152 | 1.6 | 6.4 | 0.00 | 0.00 | 0.00 | 67 | 1013.6 |
| 20260502211536 | 17 | 159 | 1.6 | 6.4 | 0.00 | 0.00 | 0.00 | 69 | 1013.7 |
| 20260502211038 | 16 | 174 | 1.6 | 8.0 | 0.00 | 0.00 | 0.00 | 69 | 1013.8 |
| 20260502211034 | 17 | 189 | 1.6 | 8.0 | 0.00 | 0.00 | 0.00 | 74 | 1013.7 |
| 20260502210648 | 16 | 169 | 1.6 | 6.4 | 0.00 | 0.00 | 0.00 | 70 | 1013.9 |
| 20260502205540 | 16 | 173 | 1.6 | 6.4 | 0.00 | 0.00 | 0.00 | 69 | 1013.9 |
| 20260502205534 | 16 | 168 | 3.2 | 6.4 | 0.00 | 0.00 | 0.00 | 71 | 1013.9 |
| 20260502205032 | 16 | 146 | 1.6 | 6.4 | 0.00 | 0.00 | 0.00 | 71 | 1013.9 |
| 20260502204645 | 16 | 76 | 1.6 | 6.4 | 0.00 | 0.00 | 0.00 | 70 | 1014.0 |
| 20260502203532 | 15 | 346 | 1.6 | 8.0 | 0.00 | 0.00 | 0.00 | 70 | 1014.1 |
| 20260502203032 | 15 | 355 | 3.2 | 8.0 | 0.00 | 0.00 | 0.00 | 70 | 1014.1 |
| 20260502202539 | 15 | 298 | 3.2 | 8.0 | 0.00 | 0.00 | 0.00 | 72 | 1014.5 |
| 20260502202532 | 16 | 83 | 3.2 | 8.0 | 0.00 | 0.00 | 0.00 | 69 | 1014.2 |
| 20260502202032 | 16 | 250 | 3.2 | 11.3 | 0.00 | 0.00 | 0.00 | 68 | 1014.3 |
| 20260502201532 | 16 | 284 | 3.2 | 11.3 | 0.00 | 0.00 | 0.00 | 70 | 1014.5 |
| 20260502200537 | 15 | 280 | 1.6 | 4.8 | 0.00 | 0.00 | 0.00 | 74 | 1014.8 |
| 20260502200532 | 15 | 284 | 3.2 | 8.0 | 0.00 | 0.00 | 0.00 | 74 | 1014.6 |
| 20260502195530 | 15 | 355 | 3.2 | 6.4 | 0.00 | 0.00 | 0.00 | 74 | 1014.9 |
| 20260502195034 | 14 | 5 | 3.2 | 6.4 | 0.00 | 0.00 | 0.00 | 75 | 1015.0 |
| 20260502195028 | 14 | 22 | 3.2 | 6.4 | 0.00 | 0.00 | 0.00 | 73 | 1015.2 |
| 20260502194027 | 14 | 0 | 3.2 | 8.0 | 0.00 | 0.00 | 0.00 | 75 | 1015.2 |
| 20260502193528 | 14 | 19 | 3.2 | 11.3 | 0.00 | 0.00 | 0.00 | 74 | 1015.3 |
| 20260502193027 | 14 | 0 | 1.6 | 11.3 | 0.00 | 0.00 | 0.00 | 72 | 1015.3 |
| 20260502192534 | 13 | 237 | 1.6 | 4.8 | 0.00 | 0.00 | 0.00 | 74 | 1015.3 |
| 20260502192029 | 13 | 292 | 1.6 | 6.4 | 0.00 | 0.00 | 0.00 | 76 | 1015.5 |
| 20260502191526 | 13 | 196 | 3.2 | 6.4 | 0.00 | 0.00 | 0.00 | 75 | 1015.4 |
| 20260502191027 | 13 | 246 | 1.6 | 6.4 | 0.00 | 0.00 | 0.00 | 77 | 1015.7 |
| 20260502190526 | 13 | 317 | 1.6 | 4.8 | 0.00 | 0.00 | 0.00 | 78 | 1015.6 |
| 20260502190025 | 12 | 96 | 1.6 | 3.2 | 0.00 | 0.00 | 0.00 | 78 | 1015.6 |
| 20260502185527 | 12 | 182 | 1.6 | 3.2 | 0.00 | 0.00 | 0.00 | 77 | 1015.7 |
| 20260502185025 | 12 | 182 | 1.6 | 4.8 | 0.00 | 0.00 | 0.00 | 77 | 1015.6 |
| 20260502184526 | 12 | 201 | 1.6 | 6.4 | 0.00 | 0.00 | 0.00 | 78 | 1015.6 |
| 20260502184027 | 12 | 201 | 3.2 | 6.4 | 0.00 | 0.00 | 0.00 | 77 | 1015.6 |
| 20260502183526 | 12 | 207 | 1.6 | 4.8 | 0.00 | 0.00 | 0.00 | 78 | 1015.5 |
| 20260502183027 | 12 | 182 | 1.6 | 3.2 | 0.00 | 0.00 | 0.00 | 78 | 1015.5 |
| 20260502182526 | 12 | 175 | 1.6 | 3.2 | 0.00 | 0.00 | 0.00 | 80 | 1015.5 |
| 20260502182030 | 12 | 167 | 1.6 | 6.4 | 0.00 | 0.00 | 0.00 | 79 | 1015.6 |
| 20260502182025 | 12 | 175 | 1.6 | 6.4 | 0.00 | 0.00 | 0.00 | 80 | 1015.6 |
| 20260502181033 | 12 | 164 | 1.6 | 6.4 | 0.00 | 0.00 | 0.00 | 79 | 1015.7 |
| 20260502181026 | 12 | 157 | 1.6 | 6.4 | 0.00 | 0.00 | 0.00 | 79 | 1015.6 |
| 20260502180525 | 12 | 152 | 1.6 | 6.4 | 0.00 | 0.00 | 0.00 | 80 | 1015.7 |
| 20260502163524 | 11 | 246 | 1.6 | 3.2 | 0.00 | 0.00 | 0.00 | 78 | 1016.1 |
| 20260502163020 | 11 | 284 | 1.6 | 6.4 | 0.00 | 0.00 | 0.00 | 78 | 1016.1 |
| 20260502162520 | 11 | 321 | 1.6 | 6.4 | 0.00 | 0.00 | 0.00 | 78 | 1016.1 |
| 20260502162021 | 11 | 252 | 1.6 | 4.8 | 0.00 | 0.00 | 0.00 | 84 | 1016.1 |
| 20260502161633 | 11 | 267 | 3.2 | 8.0 | 0.00 | 0.00 | 0.00 | 83 | 1016.3 |
| 20260502161525 | 11 | 270 | 3.2 | 6.4 | 0.00 | 0.00 | 0.00 | 83 | 1016.3 |
| 20260502161521 | 11 | 242 | 3.2 | 6.4 | 0.00 | 0.00 | 0.00 | 81 | 1016.2 |
| 20260502152017 | 9 | 299 | 3.2 | 6.4 | 0.00 | 0.00 | 0.00 | 86 | 1016.3 |
| 20260502151515 | 9 | 263 | 1.6 | 6.4 | 0.00 | 0.00 | 0.00 | 86 | 1016.2 |
| 20260502151023 | 8 | 271 | 1.6 | 6.4 | 0.00 | 0.00 | 0.00 | 87 | 1016.2 |
| 20260502151015 | 9 | 250 | 1.6 | 6.4 | 0.00 | 0.00 | 0.00 | 86 | 1016.2 |
| 20260502150515 | 9 | 296 | 1.6 | 6.4 | 0.00 | 0.00 | 0.00 | 87 | 1016.2 |
| 20260502130511 | 8 | 221 | 1.6 | 8.0 | 0.00 | 0.00 | 0.00 | 88 | 1016.6 |
| 20260502123509 | 8 | 225 | 1.6 | 4.8 | 0.00 | 0.00 | 0.00 | 88 | 1016.4 |
| 20260502123122 | 8 | 218 | 0.0 | 8.0 | 0.00 | 0.00 | 0.00 | 87 | 1016.3 |
| 20260502122622 | 8 | 217 | 1.6 | 8.0 | 0.00 | 0.00 | 0.00 | 87 | 1016.3 |
| 20260502122009 | 8 | 219 | 1.6 | 8.0 | 0.00 | 0.00 | 0.00 | 87 | 1016.2 |
| 20260502121623 | 8 | 236 | 1.6 | 9.7 | 0.00 | 0.00 | 0.00 | 87 | 1016.2 |
| 20260502120510 | 8 | 291 | 1.6 | 9.7 | 0.00 | 0.00 | 0.00 | 87 | 1016.2 |
| 20260502115514 | 8 | 216 | 1.6 | 9.7 | 0.00 | 0.00 | 0.00 | 87 | 1016.2 |
| 20260502115510 | 8 | 250 | 3.2 | 8.0 | 0.00 | 0.00 | 0.00 | 87 | 1016.4 |
| 20260502114507 | 8 | 202 | 3.2 | 9.7 | 0.00 | 0.00 | 0.00 | 87 | 1016.2 |
| 20260502114007 | 8 | 231 | 3.2 | 8.0 | 0.00 | 0.00 | 0.00 | 87 | 1016.3 |
| 20260502113507 | 8 | 240 | 3.2 | 12.9 | 0.00 | 0.00 | 0.00 | 87 | 1016.3 |
| 20260502113010 | 8 | 256 | 3.2 | 11.3 | 0.00 | 0.00 | 0.00 | 87 | 1016.3 |
| 20260502113006 | 8 | 220 | 3.2 | 12.9 | 0.00 | 0.00 | 0.00 | 87 | 1016.2 |
| 20260502112007 | 8 | 231 | 1.6 | 11.3 | 0.00 | 0.00 | 0.00 | 87 | 1016.2 |
| 20260502111506 | 8 | 258 | 1.6 | 9.7 | 0.00 | 0.00 | 0.00 | 88 | 1016.2 |
| 20260502111007 | 8 | 253 | 3.2 | 11.3 | 0.00 | 0.00 | 0.00 | 87 | 1016.2 |
| 20260502110507 | 8 | 235 | 3.2 | 11.3 | 0.00 | 0.00 | 0.00 | 87 | 1016.1 |
| 20260502110019 | 8 | 238 | 3.2 | 11.3 | 0.00 | 0.00 | 0.00 | 87 | 1016.0 |
| 20260502110008 | 8 | 258 | 3.2 | 11.3 | 0.00 | 0.00 | 0.00 | 87 | 1016.0 |
| 20260502105007 | 8 | 267 | 3.2 | 9.7 | 0.00 | 0.00 | 0.00 | 87 | 1015.9 |
| 20260502104522 | 8 | 259 | 3.2 | 9.7 | 0.00 | 0.00 | 0.00 | 87 | 1015.8 |
| 20260502104007 | 8 | 226 | 3.2 | 9.7 | 0.00 | 0.00 | 0.00 | 87 | 1016.1 |
| 20260502103508 | 8 | 243 | 3.2 | 14.5 | 0.00 | 0.00 | 0.00 | 87 | 1016.0 |
| 20260502103007 | 8 | 221 | 3.2 | 14.5 | 0.00 | 0.00 | 0.00 | 87 | 1016.0 |
| 20260502102512 | 8 | 254 | 4.8 | 12.9 | 0.00 | 0.00 | 0.00 | 87 | 1016.1 |
| 20260502102507 | 8 | 261 | 4.8 | 12.9 | 0.00 | 0.00 | 0.00 | 87 | 1016.0 |
| 20260502101506 | 9 | 291 | 3.2 | 12.9 | 0.00 | 0.00 | 0.00 | 87 | 1016.0 |
| 20260502101006 | 9 | 259 | 4.8 | 12.9 | 0.00 | 0.00 | 0.00 | 87 | 1016.1 |
| 20260502100508 | 9 | 298 | 3.2 | 12.9 | 0.00 | 0.00 | 0.00 | 86 | 1016.0 |
| 20260502091503 | 9 | 264 | 3.2 | 11.3 | 0.00 | 0.00 | 0.00 | 86 | 1016.7 |
| 20260502091004 | 9 | 252 | 3.2 | 14.5 | 0.00 | 0.00 | 0.00 | 86 | 1016.8 |
| 20260502090502 | 9 | 238 | 3.2 | 14.5 | 0.00 | 0.00 | 0.00 | 86 | 1016.9 |